Вернуться в каталог

ARIANE 1 DEB

АктивенSSO
NORAD 17423·DEBRIS·🇫🇷 France

Запущен Feb 22, 1986 с Guiana Space Centre

Loading…

Ближайшие Пролёты (ближайшие 24 часа)

TLE

СвежийSource: Space-Track

Эпоха: Sep 13, 2026, 00:08 UTC

1 17423U 86019FJ  26256.00606497 -.00000054  00000-0 -74537-5 0  9996
2 17423  98.7040 266.6317 0174725 144.0417 247.2304 14.02925452 27358

Отслеживайте ARIANE 1 DEB в реальном времени с AllMySat

Download on the App Store